Regional Weather Roundup
Issued by NWS

Home | Current Version | Previous Version | Text Only | Print | Product List | Glossary On
Versions: 1 2 3 4 5 6 7 8 9 10 11 12 13 14 15 16 17 18 19 20 21 22 23 24 25 26 27 28
000
ASUS43 KMPX 092110
RWRMN
WEATHER ROUNDUP FOR MINNESOTA
NATIONAL WEATHER SERVICE TWIN CITIES/CHANHASSEN MN
400 PM CDT SUN MAY 09 2021


NOTE: "FAIR" INDICATES FEW OR NO CLOUDS BELOW 12,000 FEET WITH NO
SIGNIFICANT WEATHER AND/OR OBSTRUCTIONS TO VISIBILITY. N/A MEANS
CURRENT SKY AND/OR WEATHER CONDITIONS ARE NOT AVAILABLE.

MNZ060>063-068>070-092200-
   Twin Cities Metro

CITY           SKY/WX    TMP DP  RH WIND       PRES   REMARKS
TWIN CITIES    MOSUNNY   61  28  28 N10G18    29.99F
ST PAUL        MOSUNNY   62  27  26 N8        30.00F
CRYSTAL        MOSUNNY   61  24  24 NE10G18   29.99F
BLAINE         MOSUNNY   61  25  25 N12G17    30.00F
LAKEVILLE      SUNNY     61  25  25 NW7       29.99S
EDEN PRAIRIE   SUNNY     61  25  25 CALM      29.98F
SOUTH ST PAUL  SUNNY     60  24  24 N3        29.99F
$$
MNZ001>005-007-008-013>017-022>024-027-028-092200-
   Northwest Minnesota

CITY           SKY/WX    TMP DP  RH WIND       PRES   REMARKS
BEMIDJI        SUNNY     53  25  34 NE12G22   30.08S
HALLOCK        MOSUNNY   55  19  24 NE12G23   30.15S
ROSEAU           N/A     55 N/A N/A NE16      30.16S
WARROAD        SUNNY     46  34  61 E15G22    30.17F
THIEF RVR FALL MOSUNNY   52  25  35 NE20      30.12F
CROOKSTON      SUNNY     54  21  28 NE12G21   30.11S
FOSSTON        MOSUNNY   54  19  26 NE12G17   30.09S
DETROIT LAKES  MOSUNNY   57  21  24 N8G17     30.05S
MOORHEAD       MOSUNNY   61   7  11 N14G22    30.07F
PARK RAPIDS    MOSUNNY   56  22  26 N9        30.05S
MAHNOMEN       FAIR      55  24  31 N18G24    30.07S
$$
MNZ006-009>011-018-025>026-092200-
   North Central Minnesota

CITY           SKY/WX    TMP DP  RH WIND       PRES   REMARKS
BAUDETTE       PTSUNNY   49  24  37 N17G24    30.15S
FLAG ISLAND    PTSUNNY   45  23  42 NE14G23   30.18S
INTL FALLS     CLOUDY    48  21  34 NE12G18   30.14S
WASKISH        PTSUNNY   50  23  34 NE12G21   30.12F
BIG FORK       PTSUNNY   48  21  34 N12G17    30.14S
LONGVILLE      PTSUNNY   52  23  32 NE9       30.05F
GRAND RAPIDS   CLOUDY    50  24  36 N10       30.08S
CRANE LAKE     CLOUDY    45  19  36 N6        30.15S
ORR            CLOUDY    48  18  29 N9G16     30.09S
COOK           CLOUDY    46  21  36 N9        30.10R
WALKER         PTCLDY    54  23  30 N10       30.06S
$$
MNZ012-019>021-037-092200-
   Northeast Minnesota

CITY           SKY/WX    TMP DP  RH WIND       PRES   REMARKS
DULUTH         PTSUNNY   45  25  45 E13       30.09R
ELY            CLOUDY    43  23  45 NE8       30.10S
HIBBING        CLOUDY    47  24  40 E10       30.08R
EVELETH        CLOUDY    47  26  44 NE8G16    30.10R
DULUTH HARBOR  CLOUDY    43  34  70 NE14      30.12S
TWO HARBORS    CLOUDY    41  25  52 E9        30.10S
SILVER BAY     CLOUDY    41  25  52 E7        30.11S
GRAND MARAIS     N/A     39  32  76 SW5       30.13S
G MARAIS ARPRT CLOUDY    37  25  60 CALM      30.08S
$$
MNZ029>031-032-039>041-046>048-054>057-064-092200-
   West Central Minnesota

CITY           SKY/WX    TMP DP  RH WIND       PRES   REMARKS
FERGUS FALLS   SUNNY     59  23  25 N5        30.01S
WHEATON        MOSUNNY   61  16  17 NW10      30.05F
MORRIS         SUNNY     61   9  12 N14       30.04F
ALEXANDRIA     SUNNY     58  18  21 N9        30.04F
ELBOW LAKE     FAIR      58  22  25 N9        30.04F
WADENA         MOSUNNY   59  27  29 N12       30.03F
GLENWOOD       SUNNY     57  21  24 NE5       30.03F
APPLETON       SUNNY     63  10  13 N3        30.02F
BENSON         SUNNY     61  21  21 NE10G16   30.04S
ORTONVILLE     MOSUNNY   61  19  20 W6G16     30.03F
MADISON        MOSUNNY   64  18  16 NW15      30.04S
WILLMAR        FAIR      63  19  19 NE12G21   30.05F
$$
MNZ033>034-036-042>043-049>051-058-059-092200-
   Central Minnesota

CITY           SKY/WX    TMP DP  RH WIND       PRES   REMARKS
ST CLOUD       SUNNY     58  20  22 NE12G22   30.03S
SAUK CENTRE    FAIR      58  24  26 E6        30.03F
PAYNESVILLE    SUNNY     59  25  27 N8        30.04S
AITKIN         MOSUNNY   54  21  28 N8G17     30.04S
PINE RIVER     PTSUNNY   55  28  35 N12       30.08S
BRAINERD       MOSUNNY   59  22  24 NE13G20   30.04S
STAPLES        MOSUNNY   59  18  20 NE10G18   30.03S
LONG PRAIRIE   FAIR      55  21  26 N8        30.03F
LITTLE FALLS   SUNNY     57  12  17 N5        30.03S
CAMP RIPLEY    FAIR      59  21  22 N10       30.04S
LITCHFIELD     SUNNY     61  21  21 NW5       30.02F
BUFFALO        SUNNY     60  19  20 MISG      30.02S
MAPLE LAKE     SUNNY     61  24  24 N5        30.03S
HUTCHINSON     SUNNY     61  27  27 NW8G17    30.02S
$$
MNZ037-044-045-052-053-092200-
   East Central Minnesota

CITY           SKY/WX    TMP DP  RH WIND       PRES   REMARKS
PRINCETON      MOSUNNY   61  25  25 E8        30.02S
MORA           MOSUNNY   54  27  35 NE9       30.05S
CAMBRIDGE      MOSUNNY   59  36  41 NE10      30.03R
RUSH CITY      MOSUNNY   57  26  30 N12       30.03S
MOOSE LAKE     MOSUNNY   54  28  37 NE6       30.04S
HINCKLEY       PTCLDY    54  28  37 N9        30.04F
CLOQUET        CLOUDY    46  25  42 E9        30.07S
$$
MNZ071>073-080-081-089-090-097-098-092200-
   Southwest Minnesota

CITY           SKY/WX    TMP DP  RH WIND       PRES   REMARKS
MONTEVIDEO     MOSUNNY   63   5  10 N10G18    30.03S
GRANITE FALLS  MOSUNNY   65  27  23 NW15      30.03F
CANBY          PTSUNNY   62  27  26 NW9       30.04F
MARSHALL       MOSUNNY   60  23  24 N13G21    30.02F
REDWOOD FALLS  MOSUNNY   63  21  20 NW6G18    30.00F
OLIVIA         SUNNY     61  19  20 NE13      30.01S
PIPESTONE        N/A     57  30  35 NW8       30.04S
WINDOM         PTSUNNY   61  23  23 NW12      30.01S
WORTHINGTON    CLOUDY    59  28  30 NW6       30.04S
JACKSON        CLOUDY    61  23  23 VRB12     30.02S
TRACY          PTSUNNY   62  14  15 W8        30.02S
SLAYTON        PTSUNNY   58  22  24 NW8       30.04S
$$
MNZ065>067-074>077-082>085-091>093-092200-
   South Central Minnesota

CITY           SKY/WX    TMP DP  RH WIND       PRES   REMARKS
MANKATO        MOSUNNY   61  24  24 N10G22    30.00S
NEW ULM        PTSUNNY   63  25  23 N12G17    30.00S
ST JAMES       MOSUNNY   64  21  19 W12G17    29.99F
FAIRMONT       CLOUDY    62  22  21 N14G20    30.01S
GLENCOE        MOSUNNY   61  24  24 N10       30.00S
FARIBAULT      MOSUNNY   63  25  23 W10G18    29.99S
OWATONNA       MOSUNNY   61  28  29 NW8G16    29.99S
WASECA         MOSUNNY   61  23  23 NW5G20    30.01R
ALBERT LEA     MOSUNNY   63  25  23 W7        29.98S
$$
MNZ078>079-086>088-094>096-092200-
   Southeast Minnesota

CITY           SKY/WX    TMP DP  RH WIND       PRES   REMARKS
ROCHESTER      MOSUNNY   63  25  23 NW13      29.98S
RED WING       PTSUNNY   63  19  19 N13       29.96S
STANTON        SUNNY     62  27  26 N9        29.97S
DODGE CENTER   MOSUNNY   61  21  21 NW9       29.98S
WINONA         PTSUNNY   63  32  31 N10G16    29.96S
AUSTIN         MOSUNNY   61  28  29 NW8       29.98S
PRESTON        PTSUNNY   61  26  26 N7        29.97S
$$
ABBREVIATIONS USED IN REMARKS
   TC - TEMPERATURES IN CELSIUS
  WCI - WIND CHILL INDEX
   HX - HEAT INDEX
  VSB - VISIBILITY
$$



USA.gov is the U.S. government's official web portal to all federal, state and local government web resources and services.